Central Sonoma County Latest

28 Stations

15 Minute Data | America/Los_Angeles
as of 6/13/21 11:38 PM PDT
Station Date Time Temp (°F) RH (%) Dew Pt (°F) Wind Spd (mph) Wind Dir (°) Wind Gust (mph) Latest Rain (In) Daily Rain (In) Daily Min Temp (°F) Daily Max Temp (°F)
Healdsburg-South (Sodini) 6/13/21 2330 63.2   0.2 87   5 59.4   1.5 2.3 SE | 136 5.4   0.7 0.00 0.00 57.8   2.4 84.8   2.5
Windsor-NW (Ranch 8) 6/13/21 2330 63.7   0.1 84   2 58.7   0.6 0.0 N | 0 0.0   0.0 0.00 0.00 58.5   0.5 83.4   3.4
Windsor-East (Ranch 16) 6/13/21 2330 63.9   1.1 87   3 60.0   1.9 2.6 SSE | 167 4.3   0.7 0.00 0.00 56.8   1.1 82.7   3.3
Mark West-North (Ranch 14) 6/13/21 2330 63.3   0.3 87   2 59.4   1.1 2.0 WNW | 300 4.6   0.0 0.00 0.00 58.9   2.9 81.9   2.5
Windsor-SE (Silk Rd) 6/13/21 2330 64.0   1.8 88   1 60.5   2.0 3.8 SSW | 213 7.7   1.8 0.00 0.00 54.5   1.9 80.8   2.8
Fulton-NW (Ranch 5) 6/13/21 2330 63.6   1.5 88   0 59.9   1.4 5.5 SSE | 165 8.5   4.8 0.00 0.00 56.5   0.1 81.5   2.8
Windsor-South (Laughlin Rd) 6/13/21 2330 64.3   2.7 - - - - - 0.00 0.00 56.3   1.8 82.5   2.0
Fulton-SE (Barnes Rd) 6/13/21 2330 63.7   0.4 86   1 59.3   0.7 3.9 SSW | 203 7.2   1.8 0.00 0.00 57.4   0.8 80.5   3.0
Fulton-SW (Ranch 21) 6/13/21 2330 63.5   2.2 86   2 59.4   1.5 2.7 SSW | 194 4.7   0.7 0.00 0.00 55.6   1.7 81.3   2.0
Santa Rosa-NW (Goldfields) 6/13/21 2330 63.6   1.8 87   2 59.8   1.2 2.9 SSE | 166 5.5   0.9 0.00 0.00 56.5   1.6 80.6   3.5
NW Santa Rosa (Piner Road) 6/13/21 2330 63.4   2.0 88   2 59.7   1.5 4.1 SSW | 213 6.8   2.8 0.00 0.00 53.8   3.4 82.6   0.3
River Rd South (Denner Ranch) 6/13/21 2330 63.0   2.4 88   1 59.3   2.5 4.9 S | 180 8.1   3.5 0.00 0.00 53.7   3.8 80.7   2.9
West Santa Rosa (Hawk's Roost) 6/13/21 2330 63.2   2.1 89   1 59.8   1.7 2.8 SSW | 192 6.1   2.5 0.00 0.00 54.2   3.8 80.5   2.5
Guerneville Rd (Prokopakis) 6/13/21 2330 63.4   1.4 90   2 60.6   2.2 - - - 0.00 0.00 52.0   5.0 80.1   2.6
Guerneville Rd West (Balletto) 6/13/21 2330 63.3   2.9 89   2 60.1   2.3 3.1 SW | 216 6.4   4.8 0.00 0.00 53.0   5.5 79.9   2.0
Guerneville Rd East (Rich Ranch) 6/13/21 2330 63.6   2.1 88   1 59.8   1.6 - - - - - 54.1   4.7 81.0   2.7
Occidental Rd (Sebastopol) 6/13/21 2330 62.2   2.4 100   0 62.2   2.4 2.7 SW | 215 6.1   4.2 0.00 0.00 51.8   7.0 78.9   3.8
Lower Westside Rd (Ranch 12) 6/13/21 2330 63.9   3.5 87   4 60.0   4.6 3.1 WSW | 258 6.3   6.3 0.00 0.00 53.2   3.3 81.0   3.1
Guerneville (Laughlin Rd) 6/13/21 2330 63.9   4.5 87   3 59.9   3.5 3.4 SSE | 157 5.6   3.6 0.00 0.00 59.7   5.7 79.3   1.4
Korbel (Winery) 6/13/21 2330 64.1   3.0 88   0 60.6   2.8 1.9 SW | 218 4.4   2.3 0.00 0.00 58.3   2.7 77.9   1.7
Forestville (Shone Farms) 6/13/21 2330 63.8   0.0 88   6 60.4   1.9 3.2 SW | 232 7.2   1.2 0.00 0.00 55.1   2.1 80.9   2.7
Forestville-NE (Ranch 30) 6/13/21 2330 63.4   0.0 89   6 60.2   1.8 3.2 SW | 228 6.5   1.1 0.00 0.00 53.8   1.2 80.7   4.1
Graton-West (Dutton Ranch) 6/13/21 2330 63.8   2.0 100   1 63.8   2.2 1.3 SSW | 205 3.1   2.2 0.00 0.00 53.8   2.5 80.5   2.2
Graton-South (Mill Station Rd) 6/13/21 2330 60.8   0.7 96   8 59.8   1.6 2.0 SSW | 212 4.3   3.0 0.00 0.00 51.9   5.0 75.6   2.9
Occidental (Horseshoe Bend) 6/13/21 2330 60.1   1.1 100   4 60.0   2.1 - - - - - 56.0   1.0 74.5   2.8
Sexton Valley (Jacqueline's Blk) 6/13/21 2330 60.7   1.9 96   9 59.4   0.8 0.3 E | 100 1.4   6.8 0.00 0.00 52.4   4.6 75.6   3.3
Sebastopol Hills (Burnside Rd) 6/13/21 2330 59.6   1.7 99   8 59.4   0.7 1.9 W | 267 5.0   3.6 0.00 0.00 57.2   0.7 72.9   3.6
Seaview/Fort Ross (Hirsch) 6/13/21 2330 57.8   0.0 97   0 57.0   0.0 0.4 WSW | 255 1.5   6.8 0.00 0.07 55.6   1.4 69.4   0.0
Max     64.3 100 63.8 5.5 - 8.5 0.00 0.07 59.7 84.8
Avg     62.9 90 59.9 2.7 - 5.3 0.00 - - -
Min     57.8 84 57.0 0.0 - 0.0 0.00 0.00 51.8 69.4